{"data":{"norad_id":68121,"intl_designator":"2026-044W","name":"STARLINK-36855","alt_names":[],"object_type":"PAYLOAD","status":"ACTIVE","operator":null,"country":"US","launch_date":"2026-03-08","launch_site_code":"AFWTR","launch_vehicle":null,"mission":null,"orbit_class":"UNKNOWN","rcs_meters":null,"size_class":null,"mass_kg":null,"dimensions":null,"purposes":["comms"],"wikipedia_slug":null,"has_3d_model":false,"image_url":null,"decayed_at":null,"tle_current":{"epoch":"2026-09-20T03:02:16.500768Z","epoch_age_seconds":88041,"freshness":"FRESH","line1":"1 68121U 26044W   26263.12657987  .00031946  00000+0  98828-3 0  9998","line2":"2 68121  97.2886 222.1313 0003188  90.7552 269.4056 15.33422349 31385","mean_motion":15.33422349,"eccentricity":0.0003188,"inclination_deg":97.2886,"raan_deg":222.1313,"arg_perigee_deg":90.7552,"mean_anomaly_deg":269.4056,"bstar":0.00098828,"rev_number":3138,"period_min":93.907591795507,"perigee_km":463.42878202247,"apogee_km":467.7923554723,"semimajor_km":6843.7475687474,"source":"CELESTRAK","updated_at":"2026-09-20T09:00:43.789637Z"}}}